sat.trackr.live / text

‹ back to catalog

STARLINK-2193

NORAD 47770 · 2021-017BA

PAYLOAD ACTIVE UNKNOWN

§ Identity

Operator
Country
US
Launch date
2021-03-04
Launch site
AFETR
Launch vehicle
Mass (kg)
RCS (m²)

Purposes: comms

External: N2YO · Heavens-Above · Gunter

§ Orbital elements

Epoch: 2026-05-24T14:19:48.193248Z

Period
94.01 min
Inclination
53.1594°
Eccentricity
0.0001147
Mean motion
15.31719739 rev/d
Perigee alt
469.9 km
Apogee alt
471.5 km
Semi-major
6,848.8 km
B*
8.5225e-5
RAAN
210.8720°
Arg perigee
87.2659°
Mean anomaly
272.8474°
Rev number
28,949

§ Raw data

STARLINK-21931 47770U 21017BA  26144.59708557  .00002282  00000+0  85225-4 0  99982 47770  53.1594 210.8720 0001147  87.2659 272.8474 15.31719739289496

JSON: /api/v1/satellites/47770 · /tle

For live sub-satellite position, see the globe view (requires WebGL).

§ Visibility from observer

Set your observer location to see the next 7 days of passes ≥ 10°. The values pass through the URL so the page stays shareable.

No JS? Fill the form by hand. The geolocation button needs JavaScript.